Time,TemperatureF,DewpointF,PressureIn,WindDirection,WindDirectionDegrees,WindSpeedMPH,WindSpeedGustMPH,Humidity,HourlyPrecipIn,Conditions,Clouds,dailyrainin,SoftwareType,DateUTC
2013-11-17 00:03:00,48.0,42.8,29.95,SSW,209,0.0,0.0,82,0.00,,,0.00,VWS V12.07,2013-11-17 08:03:00,
2013-11-17 00:08:00,48.0,42.8,29.95,SSW,209,0.0,0.0,82,0.00,,,0.00,VWS V12.07,2013-11-17 08:08:00,
2013-11-17 00:13:00,48.0,42.8,29.95,SSW,209,0.0,0.0,82,0.00,,,0.00,VWS V12.07,2013-11-17 08:13:00,
2013-11-17 00:18:00,48.0,42.8,29.95,SSW,209,0.0,0.0,82,0.00,,,0.00,VWS V12.07,2013-11-17 08:18:00,
2013-11-17 00:23:00,48.0,42.8,29.95,SSW,209,0.0,0.0,82,0.00,,,0.00,VWS V12.07,2013-11-17 08:23:00,
2013-11-17 00:28:00,48.3,43.1,29.95,SSW,209,0.0,0.0,82,0.00,,,0.00,VWS V12.07,2013-11-17 08:28:00,
2013-11-17 00:33:00,48.8,43.6,29.95,SSW,209,0.0,0.0,82,0.00,,,0.00,VWS V12.07,2013-11-17 08:33:00,
2013-11-17 00:38:00,49.1,43.8,29.95,SSW,209,0.0,0.0,82,0.00,,,0.00,VWS V12.07,2013-11-17 08:38:00,
2013-11-17 00:43:00,49.2,44.0,29.95,SSW,209,0.0,0.0,82,0.00,,,0.00,VWS V12.07,2013-11-17 08:43:00,
2013-11-17 00:48:00,49.2,44.0,29.95,SSW,209,0.0,0.0,82,0.00,,,0.00,VWS V12.07,2013-11-17 08:48:00,
2013-11-17 00:53:00,49.4,44.1,29.95,SSW,209,0.0,1.0,82,0.00,,,0.00,VWS V12.07,2013-11-17 08:53:00,
2013-11-17 00:58:00,49.5,44.2,29.95,SSW,209,0.0,0.0,82,0.00,,,0.00,VWS V12.07,2013-11-17 08:58:00,
2013-11-17 01:04:00,49.6,44.0,29.95,SSW,209,0.0,0.0,81,0.00,,,0.00,VWS V12.07,2013-11-17 09:04:00,
2013-11-17 01:09:00,49.6,44.0,29.95,SSW,209,0.0,0.0,81,0.00,,,0.00,VWS V12.07,2013-11-17 09:09:00,
2013-11-17 01:14:00,49.8,44.2,29.96,SSW,209,0.0,0.0,81,0.00,,,0.00,VWS V12.07,2013-11-17 09:14:00,
2013-11-17 01:19:00,49.9,44.3,29.96,SSW,209,0.0,0.0,81,0.00,,,0.00,VWS V12.07,2013-11-17 09:19:00,
2013-11-17 01:24:00,49.9,44.3,29.96,SSW,209,0.0,0.0,81,0.00,,,0.00,VWS V12.07,2013-11-17 09:24:00,
2013-11-17 01:29:00,49.9,44.3,29.96,SSW,209,0.0,0.0,81,0.00,,,0.00,VWS V12.07,2013-11-17 09:29:00,
2013-11-17 01:34:00,50.1,44.5,29.96,SSW,209,0.0,0.0,81,0.00,,,0.00,VWS V12.07,2013-11-17 09:34:00,
2013-11-17 01:39:00,50.2,44.6,29.96,SSW,209,0.0,0.0,81,0.00,,,0.00,VWS V12.07,2013-11-17 09:39:00,
2013-11-17 01:44:00,50.2,44.6,29.96,SSW,209,0.0,0.0,81,0.00,,,0.00,VWS V12.07,2013-11-17 09:44:00,
2013-11-17 01:49:00,50.4,44.8,29.96,SSW,209,0.0,0.0,81,0.00,,,0.00,VWS V12.07,2013-11-17 09:49:00,
2013-11-17 01:54:00,50.4,44.8,29.96,SSW,209,0.0,0.0,81,0.00,,,0.00,VWS V12.07,2013-11-17 09:54:00,
2013-11-17 01:59:00,50.7,45.1,29.96,SSW,209,0.0,0.0,81,0.00,,,0.00,VWS V12.07,2013-11-17 09:59:00,
2013-11-17 02:04:00,50.8,45.2,29.96,SSW,209,0.0,0.0,81,0.00,,,0.00,VWS V12.07,2013-11-17 10:04:00,
2013-11-17 02:09:00,51.0,45.4,29.96,SSW,209,0.0,0.0,81,0.00,,,0.00,VWS V12.07,2013-11-17 10:09:00,
2013-11-17 02:14:00,51.0,45.4,29.96,SSW,209,0.0,0.0,81,0.00,,,0.00,VWS V12.07,2013-11-17 10:14:00,
2013-11-17 02:19:00,51.1,45.5,29.96,SSW,209,0.0,0.0,81,0.00,,,0.00,VWS V12.07,2013-11-17 10:19:00,
2013-11-17 02:24:00,51.3,45.7,29.96,SSW,209,0.0,0.0,81,0.00,,,0.00,VWS V12.07,2013-11-17 10:24:00,
2013-11-17 02:29:00,51.3,45.3,29.96,SSW,209,0.0,0.0,80,0.00,,,0.00,VWS V12.07,2013-11-17 10:29:00,
2013-11-17 02:34:00,51.3,45.3,29.96,SSW,209,0.0,0.0,80,0.00,,,0.00,VWS V12.07,2013-11-17 10:34:00,
2013-11-17 02:39:00,51.3,45.3,29.96,SSW,209,0.0,0.0,80,0.00,,,0.00,VWS V12.07,2013-11-17 10:39:00,
2013-11-17 02:44:00,51.3,45.3,29.96,SSW,209,0.0,0.0,80,0.00,,,0.00,VWS V12.07,2013-11-17 10:44:00,
2013-11-17 02:49:00,51.3,45.3,29.96,SSW,209,0.0,0.0,80,0.00,,,0.00,VWS V12.07,2013-11-17 10:49:00,
2013-11-17 02:54:00,51.3,45.3,29.96,SSW,209,0.0,0.0,80,0.00,,,0.00,VWS V12.07,2013-11-17 10:54:00,
2013-11-17 02:59:00,51.1,45.2,29.96,SSW,209,0.0,0.0,80,0.00,,,0.00,VWS V12.07,2013-11-17 10:59:00,
2013-11-17 03:04:00,51.1,45.2,29.96,SSW,209,0.0,0.0,80,0.00,,,0.00,VWS V12.07,2013-11-17 11:04:00,
2013-11-17 03:09:00,51.0,45.1,29.96,SSW,209,0.0,0.0,80,0.00,,,0.00,VWS V12.07,2013-11-17 11:09:00,
2013-11-17 03:14:00,50.7,44.8,29.96,SSW,209,0.0,0.0,80,0.00,,,0.00,VWS V12.07,2013-11-17 11:14:00,
2013-11-17 03:19:00,50.5,44.6,29.96,SSW,209,0.0,0.0,80,0.00,,,0.00,VWS V12.07,2013-11-17 11:19:00,
2013-11-17 03:24:00,50.5,44.9,29.96,SSW,209,0.0,1.0,81,0.00,,,0.00,VWS V12.07,2013-11-17 11:24:00,
2013-11-17 03:29:00,50.5,44.9,29.96,SSW,209,0.0,0.0,81,0.00,,,0.00,VWS V12.07,2013-11-17 11:29:00,
2013-11-17 03:34:00,50.5,44.9,29.96,SSW,209,0.0,0.0,81,0.00,,,0.00,VWS V12.07,2013-11-17 11:34:00,
2013-11-17 03:39:00,50.7,45.1,29.96,SSW,209,0.0,0.0,81,0.00,,,0.00,VWS V12.07,2013-11-17 11:39:00,
2013-11-17 03:44:00,50.7,45.1,29.96,SSW,209,0.0,0.0,81,0.00,,,0.00,VWS V12.07,2013-11-17 11:44:00,
2013-11-17 03:49:00,50.7,45.1,29.96,SSW,209,0.0,0.0,81,0.00,,,0.00,VWS V12.07,2013-11-17 11:49:00,
2013-11-17 03:54:00,50.5,44.9,29.96,SSW,209,0.0,0.0,81,0.00,,,0.00,VWS V12.07,2013-11-17 11:54:00,
2013-11-17 03:59:00,50.4,44.8,29.96,SSW,209,0.0,0.0,81,0.00,,,0.00,VWS V12.07,2013-11-17 11:59:00,
2013-11-17 04:04:00,50.2,44.6,29.96,SSW,209,0.0,0.0,81,0.00,,,0.00,VWS V12.07,2013-11-17 12:04:00,
2013-11-17 04:09:00,49.9,44.3,29.96,SSW,209,0.0,0.0,81,0.00,,,0.00,VWS V12.07,2013-11-17 12:09:00,
2013-11-17 04:14:00,49.8,44.2,29.96,SSW,209,0.0,0.0,81,0.00,,,0.00,VWS V12.07,2013-11-17 12:14:00,
2013-11-17 04:19:00,49.6,44.0,29.96,SSW,209,0.0,0.0,81,0.00,,,0.00,VWS V12.07,2013-11-17 12:19:00,
2013-11-17 04:24:00,49.4,43.8,29.96,SSW,209,0.0,0.0,81,0.00,,,0.00,VWS V12.07,2013-11-17 12:24:00,
2013-11-17 04:29:00,49.1,43.5,29.96,SSW,209,0.0,0.0,81,0.00,,,0.00,VWS V12.07,2013-11-17 12:29:00,
2013-11-17 04:34:00,48.6,43.0,29.96,SSW,209,0.0,0.0,81,0.00,,,0.00,VWS V12.07,2013-11-17 12:34:00,
2013-11-17 04:39:00,48.5,43.0,29.96,SSW,209,0.0,0.0,81,0.00,,,0.00,VWS V12.07,2013-11-17 12:39:00,
2013-11-17 04:44:00,48.2,42.7,29.97,SSW,209,0.0,0.0,81,0.00,,,0.00,VWS V12.07,2013-11-17 12:44:00,
2013-11-17 04:49:00,47.9,42.7,29.97,SSW,209,0.0,0.0,82,0.00,,,0.00,VWS V12.07,2013-11-17 12:49:00,
2013-11-17 04:54:00,47.7,42.5,29.97,SSW,209,0.0,0.0,82,0.00,,,0.00,VWS V12.07,2013-11-17 12:54:00,
2013-11-17 04:59:00,47.7,42.5,29.97,SSW,209,0.0,0.0,82,0.00,,,0.00,VWS V12.07,2013-11-17 12:59:00,
2013-11-17 05:04:00,47.6,42.4,29.97,SSW,209,0.0,0.0,82,0.00,,,0.00,VWS V12.07,2013-11-17 13:04:00,
2013-11-17 05:09:00,47.6,42.4,29.97,SSW,209,0.0,0.0,82,0.00,,,0.00,VWS V12.07,2013-11-17 13:09:00,
2013-11-17 05:14:00,47.4,42.2,29.98,SSW,209,0.0,0.0,82,0.00,,,0.00,VWS V12.07,2013-11-17 13:14:00,
2013-11-17 05:19:00,47.4,42.5,29.98,SSW,209,0.0,1.0,83,0.00,,,0.00,VWS V12.07,2013-11-17 13:19:00,
2013-11-17 05:24:00,47.4,42.2,29.98,SSW,209,0.0,1.0,82,0.00,,,0.00,VWS V12.07,2013-11-17 13:24:00,
2013-11-17 05:29:00,47.4,42.5,29.98,SSW,209,2.0,2.0,83,0.00,,,0.00,VWS V12.07,2013-11-17 13:29:00,
2013-11-17 05:34:00,47.6,42.7,29.98,SSW,209,0.0,2.0,83,0.00,,,0.00,VWS V12.07,2013-11-17 13:34:00,
2013-11-17 05:39:00,47.4,42.2,29.98,SSW,209,0.0,2.0,82,0.00,,,0.00,VWS V12.07,2013-11-17 13:39:00,
2013-11-17 05:44:00,47.4,42.2,29.98,SSW,209,0.0,2.0,82,0.00,,,0.00,VWS V12.07,2013-11-17 13:44:00,
2013-11-17 05:49:00,47.3,42.1,29.98,SSW,209,0.0,2.0,82,0.00,,,0.00,VWS V12.07,2013-11-17 13:49:00,
2013-11-17 05:54:00,46.8,41.6,29.98,SSW,209,0.0,2.0,82,0.00,,,0.00,VWS V12.07,2013-11-17 13:54:00,
2013-11-17 05:59:00,46.5,41.3,29.98,SSW,209,0.0,0.0,82,0.00,,,0.00,VWS V12.07,2013-11-17 13:59:00,
2013-11-17 06:04:00,46.4,41.2,29.98,SSW,209,0.0,0.0,82,0.00,,,0.00,VWS V12.07,2013-11-17 14:04:00,
2013-11-17 06:09:00,46.4,41.2,29.98,SSW,209,0.0,0.0,82,0.00,,,0.00,VWS V12.07,2013-11-17 14:09:00,
2013-11-17 06:14:00,46.2,41.0,29.99,SSW,209,2.0,3.0,82,0.00,,,0.00,VWS V12.07,2013-11-17 14:14:00,
2013-11-17 06:19:00,46.7,41.8,29.99,SSW,209,0.0,3.0,83,0.00,,,0.00,VWS V12.07,2013-11-17 14:19:00,
2013-11-17 06:24:00,47.0,41.8,29.99,SSW,209,0.0,3.0,82,0.00,,,0.00,VWS V12.07,2013-11-17 14:24:00,
2013-11-17 06:29:00,47.1,41.9,30.00,SSW,209,0.0,0.0,82,0.00,,,0.00,VWS V12.07,2013-11-17 14:29:00,
2013-11-17 06:34:00,47.0,41.5,30.00,SSW,209,0.0,0.0,81,0.00,,,0.00,VWS V12.07,2013-11-17 14:34:00,
2013-11-17 06:39:00,46.7,41.2,30.00,SSW,209,0.0,0.0,81,0.00,,,0.00,VWS V12.07,2013-11-17 14:39:00,
2013-11-17 06:44:00,46.7,41.5,30.00,SSW,209,0.0,0.0,82,0.00,,,0.00,VWS V12.07,2013-11-17 14:44:00,
2013-11-17 06:49:00,46.5,41.0,30.00,SSW,209,0.0,0.0,81,0.00,,,0.00,VWS V12.07,2013-11-17 14:49:00,
2013-11-17 06:54:00,46.4,40.9,30.00,SSW,209,0.0,0.0,81,0.00,,,0.00,VWS V12.07,2013-11-17 14:54:00,
2013-11-17 06:59:00,46.7,41.5,30.00,SSW,209,0.0,0.0,82,0.00,,,0.00,VWS V12.07,2013-11-17 14:59:00,
2013-11-17 07:04:00,47.0,41.5,30.00,SSW,209,0.0,0.0,81,0.00,,,0.00,VWS V12.07,2013-11-17 15:04:00,
2013-11-17 07:09:00,47.0,41.5,30.00,SSW,209,0.0,0.0,81,0.00,,,0.00,VWS V12.07,2013-11-17 15:09:00,
2013-11-17 07:14:00,47.1,41.6,30.01,SSE,163,0.0,0.0,81,0.00,,,0.00,VWS V12.07,2013-11-17 15:14:00,
2013-11-17 07:19:00,47.4,41.9,30.01,SW,215,0.0,1.0,81,0.00,,,0.00,VWS V12.07,2013-11-17 15:19:00,
2013-11-17 07:24:00,48.0,42.1,30.01,SW,215,0.0,1.0,80,0.00,,,0.00,VWS V12.07,2013-11-17 15:24:00,
2013-11-17 07:29:00,48.5,42.0,30.02,SSE,156,0.0,3.0,78,0.00,,,0.00,VWS V12.07,2013-11-17 15:29:00,
2013-11-17 07:34:00,48.9,42.0,30.02,SSE,156,0.0,3.0,77,0.00,,,0.00,VWS V12.07,2013-11-17 15:34:00,
2013-11-17 07:39:00,49.4,42.2,30.02,SSE,156,0.0,3.0,76,0.00,,,0.00,VWS V12.07,2013-11-17 15:39:00,
2013-11-17 07:44:00,49.6,42.0,30.03,SSE,147,0.0,3.0,75,0.00,,,0.00,VWS V12.07,2013-11-17 15:44:00,
2013-11-17 07:49:00,50.1,41.8,30.03,SE,134,0.0,3.0,73,0.00,,,0.00,VWS V12.07,2013-11-17 15:49:00,
2013-11-17 07:54:00,50.4,41.7,30.03,SE,134,0.0,3.0,72,0.00,,,0.00,VWS V12.07,2013-11-17 15:54:00,
2013-11-17 07:59:00,50.8,41.8,30.03,SE,128,0.0,0.0,71,0.00,,,0.00,VWS V12.07,2013-11-17 15:59:00,
2013-11-17 08:04:00,51.3,41.5,30.03,SE,127,0.0,1.0,69,0.00,,,0.00,VWS V12.07,2013-11-17 16:04:00,
2013-11-17 08:09:00,51.7,41.5,30.03,SE,127,0.0,1.0,68,0.00,,,0.00,VWS V12.07,2013-11-17 16:09:00,
2013-11-17 08:14:00,52.3,41.7,30.03,SE,127,0.0,1.0,67,0.00,,,0.00,VWS V12.07,2013-11-17 16:14:00,
2013-11-17 08:19:00,52.8,41.4,30.03,East,84,0.0,2.0,65,0.00,,,0.00,VWS V12.07,2013-11-17 16:19:00,
2013-11-17 08:24:00,53.2,41.3,30.03,North,5,0.0,2.0,64,0.00,,,0.00,VWS V12.07,2013-11-17 16:24:00,
2013-11-17 08:29:00,53.8,41.9,30.04,North,360,0.0,1.0,64,0.00,,,0.00,VWS V12.07,2013-11-17 16:29:00,
2013-11-17 08:34:00,54.1,41.8,30.04,NNE,13,0.0,2.0,63,0.00,,,0.00,VWS V12.07,2013-11-17 16:34:00,
2013-11-17 08:39:00,54.2,41.1,30.04,East,91,0.0,7.0,61,0.00,,,0.00,VWS V12.07,2013-11-17 16:39:00,
2013-11-17 08:44:00,54.5,40.9,30.05,East,91,0.0,7.0,60,0.00,,,0.00,VWS V12.07,2013-11-17 16:44:00,
2013-11-17 08:49:00,54.8,40.8,30.05,East,90,0.0,7.0,59,0.00,,,0.00,VWS V12.07,2013-11-17 16:49:00,
2013-11-17 08:54:00,55.3,41.2,30.05,East,90,0.0,7.0,59,0.00,,,0.00,VWS V12.07,2013-11-17 16:54:00,
2013-11-17 08:59:00,55.9,41.3,30.05,East,90,0.0,0.0,58,0.00,,,0.00,VWS V12.07,2013-11-17 16:59:00,
2013-11-17 09:04:00,56.5,41.5,30.05,East,90,0.0,0.0,57,0.00,,,0.00,VWS V12.07,2013-11-17 17:04:00,
2013-11-17 09:09:00,57.2,41.7,30.05,East,90,0.0,0.0,56,0.00,,,0.00,VWS V12.07,2013-11-17 17:09:00,
2013-11-17 09:14:00,57.5,41.5,30.05,South,173,0.0,4.0,55,0.00,,,0.00,VWS V12.07,2013-11-17 17:14:00,
2013-11-17 09:19:00,58.0,41.5,30.05,South,173,0.0,4.0,54,0.00,,,0.00,VWS V12.07,2013-11-17 17:19:00,
2013-11-17 09:24:00,58.0,41.5,30.05,SSW,200,0.0,4.0,54,0.00,,,0.00,VWS V12.07,2013-11-17 17:24:00,
2013-11-17 09:29:00,58.3,41.8,30.06,SSW,200,2.0,3.0,54,0.00,,,0.00,VWS V12.07,2013-11-17 17:29:00,
2013-11-17 09:34:00,58.3,41.3,30.06,SSW,213,0.0,6.0,53,0.00,,,0.00,VWS V12.07,2013-11-17 17:34:00,
2013-11-17 09:39:00,58.6,41.5,30.06,SSW,211,2.0,6.0,53,0.00,,,0.00,VWS V12.07,2013-11-17 17:39:00,
2013-11-17 09:44:00,58.9,42.3,30.06,SSW,211,1.0,6.0,54,0.00,,,0.00,VWS V12.07,2013-11-17 17:44:00,
2013-11-17 09:49:00,59.2,42.1,30.06,SSW,212,0.0,6.0,53,0.00,,,0.00,VWS V12.07,2013-11-17 17:49:00,
2013-11-17 09:54:00,59.3,42.7,30.06,SSW,212,0.0,6.0,54,0.00,,,0.00,VWS V12.07,2013-11-17 17:54:00,
2013-11-17 09:59:00,59.6,43.0,30.06,SSW,200,0.0,4.0,54,0.00,,,0.00,VWS V12.07,2013-11-17 17:59:00,
2013-11-17 10:04:00,59.8,43.6,30.06,SSW,201,0.0,4.0,55,0.00,,,0.00,VWS V12.07,2013-11-17 18:04:00,
2013-11-17 10:09:00,60.2,44.0,30.06,SSW,201,0.0,4.0,55,0.00,,,0.00,VWS V12.07,2013-11-17 18:09:00,
2013-11-17 10:14:00,60.1,43.9,30.06,SSW,205,0.0,4.0,55,0.00,,,0.00,VWS V12.07,2013-11-17 18:14:00,
2013-11-17 10:19:00,60.1,43.9,30.06,SSW,205,0.0,4.0,55,0.00,,,0.00,VWS V12.07,2013-11-17 18:19:00,
2013-11-17 10:24:00,60.2,44.0,30.06,SSW,211,1.0,4.0,55,0.00,,,0.00,VWS V12.07,2013-11-17 18:24:00,
2013-11-17 10:29:00,60.7,43.5,30.06,SSW,211,0.0,1.0,53,0.00,,,0.00,VWS V12.07,2013-11-17 18:29:00,
2013-11-17 10:34:00,61.3,43.5,30.06,South,180,0.0,5.0,52,0.00,,,0.00,VWS V12.07,2013-11-17 18:34:00,
2013-11-17 10:39:00,61.6,43.3,30.06,South,181,0.0,5.0,51,0.00,,,0.00,VWS V12.07,2013-11-17 18:39:00,
2013-11-17 10:44:00,61.6,42.8,30.06,SSW,200,0.0,5.0,50,0.00,,,0.00,VWS V12.07,2013-11-17 18:44:00,
2013-11-17 10:49:00,61.5,43.2,30.06,SSW,200,0.0,5.0,51,0.00,,,0.00,VWS V12.07,2013-11-17 18:49:00,
2013-11-17 10:54:00,61.5,43.2,30.06,SW,217,0.0,5.0,51,0.00,,,0.00,VWS V12.07,2013-11-17 18:54:00,
2013-11-17 10:59:00,61.3,43.0,30.06,SW,217,0.0,1.0,51,0.00,,,0.00,VWS V12.07,2013-11-17 18:59:00,
2013-11-17 11:04:00,61.3,43.0,30.06,SW,217,0.0,2.0,51,0.00,,,0.00,VWS V12.07,2013-11-17 19:04:00,
2013-11-17 11:09:00,61.3,43.0,30.06,SW,217,0.0,4.0,51,0.00,,,0.00,VWS V12.07,2013-11-17 19:09:00,
2013-11-17 11:14:00,61.6,42.8,30.05,SW,215,0.0,4.0,50,0.00,,,0.00,VWS V12.07,2013-11-17 19:14:00,
2013-11-17 11:19:00,62.1,42.7,30.05,SW,215,0.0,4.0,49,0.00,,,0.00,VWS V12.07,2013-11-17 19:19:00,
2013-11-17 11:24:00,62.4,42.5,30.05,SSW,204,0.0,4.0,48,0.00,,,0.00,VWS V12.07,2013-11-17 19:24:00,
2013-11-17 11:29:00,62.3,42.9,30.05,SSW,204,0.0,3.0,49,0.00,,,0.00,VWS V12.07,2013-11-17 19:29:00,
2013-11-17 11:34:00,62.3,42.9,30.05,SSW,204,0.0,3.0,49,0.00,,,0.00,VWS V12.07,2013-11-17 19:34:00,
2013-11-17 11:39:00,62.4,43.0,30.05,SW,214,4.0,5.0,49,0.00,,,0.00,VWS V12.07,2013-11-17 19:39:00,
2013-11-17 11:44:00,62.6,43.2,30.04,SW,214,0.0,5.0,49,0.00,,,0.00,VWS V12.07,2013-11-17 19:44:00,
2013-11-17 11:49:00,62.9,42.9,30.04,South,183,0.0,5.0,48,0.00,,,0.00,VWS V12.07,2013-11-17 19:49:00,
2013-11-17 11:54:00,63.1,42.6,30.04,East,91,0.0,5.0,47,0.00,,,0.00,VWS V12.07,2013-11-17 19:54:00,
2013-11-17 11:59:00,63.4,42.8,30.03,SW,223,4.0,7.0,47,0.00,,,0.00,VWS V12.07,2013-11-17 19:59:00,
2013-11-17 12:04:00,63.5,43.5,30.03,SW,217,0.0,7.0,48,0.00,,,0.00,VWS V12.07,2013-11-17 20:04:00,
2013-11-17 12:09:00,63.7,43.7,30.03,SSW,194,2.0,7.0,48,0.00,,,0.00,VWS V12.07,2013-11-17 20:09:00,
2013-11-17 12:14:00,64.0,43.4,30.03,South,169,0.0,7.0,47,0.00,,,0.00,VWS V12.07,2013-11-17 20:14:00,
2013-11-17 12:19:00,64.5,43.8,30.03,SSW,208,0.0,7.0,47,0.00,,,0.00,VWS V12.07,2013-11-17 20:19:00,
2013-11-17 12:24:00,64.8,44.1,30.03,SSW,208,0.0,7.0,47,0.00,,,0.00,VWS V12.07,2013-11-17 20:24:00,
2013-11-17 12:29:00,64.7,43.5,30.03,SSW,208,0.0,3.0,46,0.00,,,0.00,VWS V12.07,2013-11-17 20:29:00,
2013-11-17 12:34:00,64.3,43.1,30.03,SW,215,3.0,5.0,46,0.00,,,0.00,VWS V12.07,2013-11-17 20:34:00,
2013-11-17 12:39:00,64.3,43.7,30.03,SSW,205,0.0,5.0,47,0.00,,,0.00,VWS V12.07,2013-11-17 20:39:00,
2013-11-17 12:44:00,63.9,43.3,30.03,SSW,207,0.0,5.0,47,0.00,,,0.00,VWS V12.07,2013-11-17 20:44:00,
2013-11-17 12:49:00,63.5,43.5,30.03,SSW,207,0.0,5.0,48,0.00,,,0.00,VWS V12.07,2013-11-17 20:49:00,
2013-11-17 12:54:00,63.4,43.4,30.03,SSW,207,0.0,5.0,48,0.00,,,0.00,VWS V12.07,2013-11-17 20:54:00,
2013-11-17 12:59:00,63.4,43.4,30.03,SSW,207,0.0,3.0,48,0.00,,,0.00,VWS V12.07,2013-11-17 20:59:00,
2013-11-17 13:04:00,63.4,43.9,30.03,South,181,0.0,3.0,49,0.00,,,0.00,VWS V12.07,2013-11-17 21:04:00,
2013-11-17 13:09:00,63.7,43.1,30.03,SSW,211,2.0,3.0,47,0.00,,,0.00,VWS V12.07,2013-11-17 21:09:00,
2013-11-17 13:14:00,63.5,43.5,30.02,SSW,211,0.0,3.0,48,0.00,,,0.00,VWS V12.07,2013-11-17 21:14:00,
2013-11-17 13:19:00,63.9,43.3,30.02,SSW,211,0.0,3.0,47,0.00,,,0.00,VWS V12.07,2013-11-17 21:19:00,
2013-11-17 13:24:00,63.9,43.3,30.02,SSW,211,0.0,3.0,47,0.00,,,0.00,VWS V12.07,2013-11-17 21:24:00,
2013-11-17 13:29:00,63.9,43.3,30.02,SSW,211,0.0,1.0,47,0.00,,,0.00,VWS V12.07,2013-11-17 21:29:00,
2013-11-17 13:34:00,64.0,43.4,30.02,SSW,211,0.0,2.0,47,0.00,,,0.00,VWS V12.07,2013-11-17 21:34:00,
2013-11-17 13:39:00,64.0,43.4,30.02,SSW,211,0.0,2.0,47,0.00,,,0.00,VWS V12.07,2013-11-17 21:39:00,
2013-11-17 13:44:00,64.2,43.6,30.01,SSW,211,0.0,2.0,47,0.00,,,0.00,VWS V12.07,2013-11-17 21:44:00,
2013-11-17 13:49:00,64.2,43.6,30.01,SSW,208,0.0,2.0,47,0.00,,,0.00,VWS V12.07,2013-11-17 21:49:00,
2013-11-17 13:54:00,63.9,43.8,30.01,SSW,208,0.0,2.0,48,0.00,,,0.00,VWS V12.07,2013-11-17 21:54:00,
2013-11-17 13:59:00,63.9,43.3,30.01,SSW,211,0.0,4.0,47,0.00,,,0.00,VWS V12.07,2013-11-17 21:59:00,
2013-11-17 14:04:00,63.7,43.7,30.01,SSW,211,0.0,4.0,48,0.00,,,0.00,VWS V12.07,2013-11-17 22:04:00,
2013-11-17 14:09:00,63.7,43.7,30.01,SSW,211,0.0,4.0,48,0.00,,,0.00,VWS V12.07,2013-11-17 22:09:00,
2013-11-17 14:14:00,63.9,43.8,30.01,SSW,211,0.0,4.0,48,0.00,,,0.00,VWS V12.07,2013-11-17 22:14:00,
2013-11-17 14:19:00,63.7,44.2,30.01,SSW,207,0.0,4.0,49,0.00,,,0.00,VWS V12.07,2013-11-17 22:19:00,
2013-11-17 14:24:00,63.4,44.5,30.01,SSW,207,0.0,4.0,50,0.00,,,0.00,VWS V12.07,2013-11-17 22:24:00,
2013-11-17 14:29:00,63.2,44.3,30.02,SSW,207,1.0,3.0,50,0.00,,,0.00,VWS V12.07,2013-11-17 22:29:00,
2013-11-17 14:34:00,63.1,44.2,30.02,SSW,208,0.0,4.0,50,0.00,,,0.00,VWS V12.07,2013-11-17 22:34:00,
2013-11-17 14:39:00,63.5,44.0,30.02,SSE,153,1.0,4.0,49,0.00,,,0.00,VWS V12.07,2013-11-17 22:39:00,
2013-11-17 14:44:00,63.9,44.4,30.02,ESE,123,0.0,4.0,49,0.00,,,0.00,VWS V12.07,2013-11-17 22:44:00,
2013-11-17 14:49:00,64.3,44.8,30.02,SW,221,4.0,6.0,49,0.00,,,0.00,VWS V12.07,2013-11-17 22:49:00,
2013-11-17 14:54:00,64.2,44.7,30.02,SW,221,0.0,6.0,49,0.00,,,0.00,VWS V12.07,2013-11-17 22:54:00,
2013-11-17 14:59:00,64.0,44.5,30.02,SSW,213,0.0,3.0,49,0.00,,,0.00,VWS V12.07,2013-11-17 22:59:00,
2013-11-17 15:04:00,63.9,44.9,30.02,SSW,213,0.0,3.0,50,0.00,,,0.00,VWS V12.07,2013-11-17 23:04:00,
2013-11-17 15:09:00,64.0,45.0,30.02,SSW,213,0.0,3.0,50,0.00,,,0.00,VWS V12.07,2013-11-17 23:09:00,
2013-11-17 15:14:00,63.9,44.4,30.02,SW,217,0.0,4.0,49,0.00,,,0.00,VWS V12.07,2013-11-17 23:14:00,
2013-11-17 15:19:00,63.5,45.1,30.02,SW,217,0.0,4.0,51,0.00,,,0.00,VWS V12.07,2013-11-17 23:19:00,
2013-11-17 15:24:00,63.4,45.0,30.02,SW,217,0.0,4.0,51,0.00,,,0.00,VWS V12.07,2013-11-17 23:24:00,
2013-11-17 15:29:00,63.5,45.1,30.02,SW,217,0.0,0.0,51,0.00,,,0.00,VWS V12.07,2013-11-17 23:29:00,
2013-11-17 15:34:00,63.4,45.5,30.02,SW,216,0.0,0.0,52,0.00,,,0.00,VWS V12.07,2013-11-17 23:34:00,
2013-11-17 15:39:00,63.2,45.8,30.02,SW,217,0.0,2.0,53,0.00,,,0.00,VWS V12.07,2013-11-17 23:39:00,
2013-11-17 15:44:00,63.1,45.7,30.02,SW,217,0.0,2.0,53,0.00,,,0.00,VWS V12.07,2013-11-17 23:44:00,
2013-11-17 15:49:00,62.7,45.3,30.02,SW,217,0.0,2.0,53,0.00,,,0.00,VWS V12.07,2013-11-17 23:49:00,
2013-11-17 15:54:00,62.4,45.5,30.02,WNW,284,0.0,2.0,54,0.00,,,0.00,VWS V12.07,2013-11-17 23:54:00,
2013-11-17 15:59:00,62.1,45.8,30.02,WSW,258,0.0,2.0,55,0.00,,,0.00,VWS V12.07,2013-11-17 23:59:00,
2013-11-17 16:04:00,62.0,45.7,30.02,WSW,257,0.0,2.0,55,0.00,,,0.00,VWS V12.07,2013-11-18 00:04:00,
2013-11-17 16:09:00,61.8,46.0,30.02,WSW,238,0.0,3.0,56,0.00,,,0.00,VWS V12.07,2013-11-18 00:09:00,
2013-11-17 16:14:00,61.8,45.5,30.02,WSW,238,0.0,3.0,55,0.00,,,0.00,VWS V12.07,2013-11-18 00:14:00,
2013-11-17 16:19:00,61.8,45.5,30.02,WSW,238,0.0,3.0,55,0.00,,,0.00,VWS V12.07,2013-11-18 00:19:00,
2013-11-17 16:24:00,61.6,45.3,30.02,WSW,238,0.0,3.0,55,0.00,,,0.00,VWS V12.07,2013-11-18 00:24:00,
2013-11-17 16:29:00,61.5,45.7,30.02,WSW,238,0.0,0.0,56,0.00,,,0.00,VWS V12.07,2013-11-18 00:29:00,
2013-11-17 16:34:00,61.3,45.5,30.02,WSW,238,0.0,0.0,56,0.00,,,0.00,VWS V12.07,2013-11-18 00:34:00,
2013-11-17 16:39:00,61.0,45.2,30.02,WSW,238,0.0,0.0,56,0.00,,,0.00,VWS V12.07,2013-11-18 00:39:00,
2013-11-17 16:44:00,60.7,45.4,30.02,WSW,238,0.0,0.0,57,0.00,,,0.00,VWS V12.07,2013-11-18 00:44:00,
2013-11-17 16:49:00,60.5,45.2,30.02,WSW,238,0.0,0.0,57,0.00,,,0.00,VWS V12.07,2013-11-18 00:49:00,
2013-11-17 16:54:00,60.2,44.9,30.02,WSW,238,0.0,0.0,57,0.00,,,0.00,VWS V12.07,2013-11-18 00:54:00,
2013-11-17 16:59:00,59.9,45.1,30.02,WSW,238,0.0,0.0,58,0.00,,,0.00,VWS V12.07,2013-11-18 00:59:00,
2013-11-17 17:04:00,59.6,44.8,30.02,WSW,238,0.0,0.0,58,0.00,,,0.00,VWS V12.07,2013-11-18 01:04:00,
2013-11-17 17:09:00,59.0,44.7,30.02,WSW,238,0.0,0.0,59,0.00,,,0.00,VWS V12.07,2013-11-18 01:09:00,
2013-11-17 17:14:00,58.7,44.4,30.03,WSW,238,0.0,0.0,59,0.00,,,0.00,VWS V12.07,2013-11-18 01:14:00,
2013-11-17 17:19:00,58.3,44.5,30.03,WSW,239,0.0,0.0,60,0.00,,,0.00,VWS V12.07,2013-11-18 01:19:00,
2013-11-17 17:24:00,58.1,44.3,30.03,WSW,239,0.0,0.0,60,0.00,,,0.00,VWS V12.07,2013-11-18 01:24:00,
2013-11-17 17:29:00,57.8,44.0,30.04,WSW,239,0.0,0.0,60,0.00,,,0.00,VWS V12.07,2013-11-18 01:29:00,
2013-11-17 17:34:00,57.6,44.3,30.04,WSW,239,0.0,0.0,61,0.00,,,0.00,VWS V12.07,2013-11-18 01:34:00,
2013-11-17 17:39:00,57.5,44.2,30.04,WSW,239,0.0,0.0,61,0.00,,,0.00,VWS V12.07,2013-11-18 01:39:00,
2013-11-17 17:44:00,57.2,43.9,30.04,WSW,239,0.0,0.0,61,0.00,,,0.00,VWS V12.07,2013-11-18 01:44:00,
2013-11-17 17:49:00,56.7,43.8,30.04,WSW,239,0.0,0.0,62,0.00,,,0.00,VWS V12.07,2013-11-18 01:49:00,
2013-11-17 17:54:00,56.5,44.1,30.04,WSW,239,0.0,0.0,63,0.00,,,0.00,VWS V12.07,2013-11-18 01:54:00,
2013-11-17 17:59:00,56.3,44.3,30.04,WSW,239,0.0,0.0,64,0.00,,,0.00,VWS V12.07,2013-11-18 01:59:00,
2013-11-17 18:04:00,56.2,43.8,30.04,WSW,239,0.0,0.0,63,0.00,,,0.00,VWS V12.07,2013-11-18 02:04:00,
2013-11-17 18:09:00,55.7,43.3,30.04,WSW,240,0.0,0.0,63,0.00,,,0.00,VWS V12.07,2013-11-18 02:09:00,
2013-11-17 18:14:00,55.7,44.1,30.04,WSW,239,0.0,0.0,65,0.00,,,0.00,VWS V12.07,2013-11-18 02:14:00,
2013-11-17 18:19:00,55.7,43.7,30.04,WSW,239,0.0,0.0,64,0.00,,,0.00,VWS V12.07,2013-11-18 02:19:00,
2013-11-17 18:24:00,55.4,43.8,30.04,WSW,239,0.0,0.0,65,0.00,,,0.00,VWS V12.07,2013-11-18 02:24:00,
2013-11-17 18:29:00,55.6,44.0,30.04,WSW,239,0.0,0.0,65,0.00,,,0.00,VWS V12.07,2013-11-18 02:29:00,
2013-11-17 18:34:00,56.0,44.4,30.04,WSW,239,0.0,1.0,65,0.00,,,0.00,VWS V12.07,2013-11-18 02:34:00,
2013-11-17 18:39:00,56.2,44.2,30.04,WSW,239,0.0,1.0,64,0.00,,,0.00,VWS V12.07,2013-11-18 02:39:00,
2013-11-17 18:44:00,56.2,44.2,30.04,WSW,240,0.0,1.0,64,0.00,,,0.00,VWS V12.07,2013-11-18 02:44:00,
2013-11-17 18:49:00,55.9,43.9,30.04,WSW,240,0.0,1.0,64,0.00,,,0.00,VWS V12.07,2013-11-18 02:49:00,
2013-11-17 18:54:00,55.7,43.7,30.04,WSW,239,0.0,1.0,64,0.00,,,0.00,VWS V12.07,2013-11-18 02:54:00,
2013-11-17 18:59:00,55.6,43.6,30.04,WSW,239,0.0,0.0,64,0.00,,,0.00,VWS V12.07,2013-11-18 02:59:00,
2013-11-17 19:04:00,55.1,43.6,30.04,WSW,239,0.0,0.0,65,0.00,,,0.00,VWS V12.07,2013-11-18 03:04:00,
2013-11-17 19:09:00,54.8,43.3,30.04,WSW,239,0.0,0.0,65,0.00,,,0.00,VWS V12.07,2013-11-18 03:09:00,
2013-11-17 19:14:00,54.4,43.7,30.05,WSW,240,0.0,0.0,67,0.00,,,0.00,VWS V12.07,2013-11-18 03:14:00,
2013-11-17 19:19:00,54.2,43.5,30.05,WSW,239,0.0,0.0,67,0.00,,,0.00,VWS V12.07,2013-11-18 03:19:00,
2013-11-17 19:24:00,53.9,43.2,30.05,WSW,239,0.0,0.0,67,0.00,,,0.00,VWS V12.07,2013-11-18 03:24:00,
2013-11-17 19:29:00,53.8,43.1,30.06,WSW,239,0.0,1.0,67,0.00,,,0.00,VWS V12.07,2013-11-18 03:29:00,
2013-11-17 19:34:00,53.6,43.7,30.06,WSW,239,0.0,1.0,69,0.00,,,0.00,VWS V12.07,2013-11-18 03:34:00,
2013-11-17 19:39:00,53.9,44.3,30.06,WSW,239,0.0,1.0,70,0.00,,,0.00,VWS V12.07,2013-11-18 03:39:00,
2013-11-17 19:44:00,53.9,44.3,30.06,WSW,239,0.0,1.0,70,0.00,,,0.00,VWS V12.07,2013-11-18 03:44:00,
2013-11-17 19:49:00,53.8,44.3,30.06,WSW,239,0.0,1.0,70,0.00,,,0.00,VWS V12.07,2013-11-18 03:49:00,
2013-11-17 19:54:00,53.5,44.3,30.06,WSW,239,0.0,1.0,71,0.00,,,0.00,VWS V12.07,2013-11-18 03:54:00,
2013-11-17 19:59:00,53.3,44.2,30.06,WSW,239,0.0,0.0,71,0.00,,,0.00,VWS V12.07,2013-11-18 03:59:00,
2013-11-17 20:04:00,53.2,43.7,30.06,WSW,240,0.0,0.0,70,0.00,,,0.00,VWS V12.07,2013-11-18 04:04:00,
2013-11-17 20:09:00,52.9,43.8,30.06,WSW,240,0.0,0.0,71,0.00,,,0.00,VWS V12.07,2013-11-18 04:09:00,
2013-11-17 20:14:00,52.8,44.0,30.07,WSW,239,0.0,0.0,72,0.00,,,0.00,VWS V12.07,2013-11-18 04:14:00,
2013-11-17 20:19:00,52.6,43.8,30.07,WSW,239,0.0,0.0,72,0.00,,,0.00,VWS V12.07,2013-11-18 04:19:00,
2013-11-17 20:24:00,52.3,43.5,30.07,WSW,239,0.0,0.0,72,0.00,,,0.00,VWS V12.07,2013-11-18 04:24:00,
2013-11-17 20:29:00,52.2,43.8,30.07,WSW,239,0.0,0.0,73,0.00,,,0.00,VWS V12.07,2013-11-18 04:29:00,
2013-11-17 20:34:00,52.3,44.3,30.07,WSW,239,0.0,0.0,74,0.00,,,0.00,VWS V12.07,2013-11-18 04:34:00,
2013-11-17 20:39:00,52.3,44.3,30.07,WSW,239,0.0,0.0,74,0.00,,,0.00,VWS V12.07,2013-11-18 04:39:00,
2013-11-17 20:44:00,52.3,44.6,30.08,WSW,239,0.0,0.0,75,0.00,,,0.00,VWS V12.07,2013-11-18 04:44:00,
2013-11-17 20:49:00,52.2,44.5,30.08,WSW,240,0.0,0.0,75,0.00,,,0.00,VWS V12.07,2013-11-18 04:49:00,
2013-11-17 20:54:00,52.0,44.3,30.08,WSW,239,0.0,0.0,75,0.00,,,0.00,VWS V12.07,2013-11-18 04:54:00,
2013-11-17 20:59:00,51.7,44.0,30.08,WSW,239,0.0,0.0,75,0.00,,,0.00,VWS V12.07,2013-11-18 04:59:00,
2013-11-17 21:01:00,51.7,44.4,30.08,WSW,239,0.0,0.0,76,0.00,,,0.00,VWS V12.07,2013-11-18 05:01:00,
2013-11-17 21:02:00,51.6,44.3,30.08,WSW,239,0.0,0.0,76,0.00,,,0.00,VWS V12.07,2013-11-18 05:02:00,
2013-11-17 21:04:00,51.6,44.3,30.08,WSW,239,0.0,0.0,76,0.00,,,0.00,VWS V12.07,2013-11-18 05:04:00,
2013-11-17 21:07:00,51.6,44.3,30.08,WSW,239,0.0,0.0,76,0.00,,,0.00,VWS V12.07,2013-11-18 05:07:00,
2013-11-17 21:09:00,51.4,44.4,30.08,WSW,239,0.0,0.0,77,0.00,,,0.00,VWS V12.07,2013-11-18 05:09:00,
2013-11-17 21:11:00,51.4,44.4,30.08,WSW,239,0.0,0.0,77,0.00,,,0.00,VWS V12.07,2013-11-18 05:11:00,
2013-11-17 21:16:00,51.3,44.3,30.08,WSW,239,0.0,0.0,77,0.00,,,0.00,VWS V12.07,2013-11-18 05:16:00,
2013-11-17 21:21:00,51.1,44.2,30.08,WSW,239,0.0,0.0,77,0.00,,,0.00,VWS V12.07,2013-11-18 05:21:00,
2013-11-17 21:26:00,51.1,44.2,30.09,WSW,239,0.0,0.0,77,0.00,,,0.00,VWS V12.07,2013-11-18 05:26:00,
2013-11-17 21:31:00,51.0,44.4,30.09,WSW,240,0.0,0.0,78,0.00,,,0.00,VWS V12.07,2013-11-18 05:31:00,
2013-11-17 21:36:00,51.0,44.4,30.09,WSW,240,0.0,0.0,78,0.00,,,0.00,VWS V12.07,2013-11-18 05:36:00,
2013-11-17 21:41:00,51.0,44.4,30.09,WSW,239,0.0,0.0,78,0.00,,,0.00,VWS V12.07,2013-11-18 05:41:00,
2013-11-17 21:46:00,50.8,44.2,30.09,WSW,240,0.0,0.0,78,0.00,,,0.00,VWS V12.07,2013-11-18 05:46:00,
2013-11-17 21:51:00,50.8,44.2,30.09,WSW,239,0.0,0.0,78,0.00,,,0.00,VWS V12.07,2013-11-18 05:51:00,
2013-11-17 21:56:00,50.7,43.8,30.09,WSW,239,0.0,0.0,77,0.00,,,0.00,VWS V12.07,2013-11-18 05:56:00,
2013-11-17 22:01:00,50.5,43.2,30.09,WSW,239,0.0,0.0,76,0.00,,,0.00,VWS V12.07,2013-11-18 06:01:00,
2013-11-17 22:06:00,50.7,43.1,30.09,WSW,239,0.0,1.0,75,0.00,,,0.00,VWS V12.07,2013-11-18 06:06:00,
2013-11-17 22:11:00,50.5,42.5,30.09,WSW,240,0.0,1.0,74,0.00,,,0.00,VWS V12.07,2013-11-18 06:11:00,
2013-11-17 22:16:00,50.4,42.8,30.09,WSW,239,0.0,1.0,75,0.00,,,0.00,VWS V12.07,2013-11-18 06:16:00,
2013-11-17 22:21:00,50.2,42.6,30.09,WSW,240,0.0,1.0,75,0.00,,,0.00,VWS V12.07,2013-11-18 06:21:00,
2013-11-17 22:26:00,50.2,42.9,30.09,WSW,239,0.0,1.0,76,0.00,,,0.00,VWS V12.07,2013-11-18 06:26:00,
2013-11-17 22:31:00,50.2,42.9,30.09,WSW,239,0.0,0.0,76,0.00,,,0.00,VWS V12.07,2013-11-18 06:31:00,
2013-11-17 22:36:00,50.2,43.3,30.09,WSW,239,0.0,0.0,77,0.00,,,0.00,VWS V12.07,2013-11-18 06:36:00,
2013-11-17 22:41:00,50.2,42.9,30.09,WSW,239,0.0,0.0,76,0.00,,,0.00,VWS V12.07,2013-11-18 06:41:00,
2013-11-17 22:46:00,50.2,42.9,30.09,WSW,239,0.0,0.0,76,0.00,,,0.00,VWS V12.07,2013-11-18 06:46:00,
2013-11-17 22:51:00,50.1,42.8,30.09,WSW,239,0.0,0.0,76,0.00,,,0.00,VWS V12.07,2013-11-18 06:51:00,
2013-11-17 22:56:00,50.2,42.6,30.10,WSW,239,0.0,0.0,75,0.00,,,0.00,VWS V12.07,2013-11-18 06:56:00,
2013-11-17 23:01:00,50.2,42.2,30.10,WSW,239,0.0,0.0,74,0.00,,,0.00,VWS V12.07,2013-11-18 07:01:00,
2013-11-17 23:06:00,50.2,42.2,30.10,WSW,239,0.0,0.0,74,0.00,,,0.00,VWS V12.07,2013-11-18 07:06:00,
2013-11-17 23:11:00,50.2,41.9,30.10,WSW,239,0.0,0.0,73,0.00,,,0.00,VWS V12.07,2013-11-18 07:11:00,
2013-11-17 23:16:00,50.2,41.5,30.10,WSW,240,0.0,0.0,72,0.00,,,0.00,VWS V12.07,2013-11-18 07:16:00,
2013-11-17 23:21:00,50.1,41.1,30.10,WSW,239,0.0,0.0,71,0.00,,,0.00,VWS V12.07,2013-11-18 07:21:00,
2013-11-17 23:26:00,49.9,41.2,30.10,WSW,239,0.0,0.0,72,0.00,,,0.00,VWS V12.07,2013-11-18 07:26:00,
2013-11-17 23:31:00,49.9,41.6,30.10,WSW,239,0.0,0.0,73,0.00,,,0.00,VWS V12.07,2013-11-18 07:31:00,
2013-11-17 23:36:00,49.8,41.9,30.10,WSW,239,0.0,0.0,74,0.00,,,0.00,VWS V12.07,2013-11-18 07:36:00,
2013-11-17 23:41:00,49.9,41.6,30.10,WSW,239,0.0,0.0,73,0.00,,,0.00,VWS V12.07,2013-11-18 07:41:00,
2013-11-17 23:46:00,49.8,41.2,30.10,WSW,239,0.0,0.0,72,0.00,,,0.00,VWS V12.07,2013-11-18 07:46:00,
2013-11-17 23:51:00,49.6,41.0,30.10,WSW,239,0.0,0.0,72,0.00,,,0.00,VWS V12.07,2013-11-18 07:51:00,
2013-11-17 23:56:00,49.4,41.1,30.10,WSW,239,0.0,0.0,73,0.00,,,0.00,VWS V12.07,2013-11-18 07:56:00,